Time,TemperatureF,DewpointF,PressureIn,WindDirection,WindDirectionDegrees,WindSpeedMPH,WindSpeedGustMPH,Humidity,HourlyPrecipIn,Conditions,Clouds,dailyrainin,SoftwareType,DateUTC
2013-06-29 00:03:00,68.3,63.3,29.61,NNW,347,0.0,0.0,84,0.00,,,0.00,Wunderground v.1.15,2013-06-29 05:03:00,
2013-06-29 00:08:00,68.2,63.2,29.61,NNW,347,0.0,0.0,84,0.00,,,0.00,Wunderground v.1.15,2013-06-29 05:08:00,
2013-06-29 00:14:00,68.2,63.2,29.61,NNW,347,0.0,0.0,84,0.00,,,0.00,Wunderground v.1.15,2013-06-29 05:14:00,
2013-06-29 00:20:00,68.1,63.1,29.60,NNW,347,0.0,1.0,84,0.00,,,0.00,Wunderground v.1.15,2013-06-29 05:20:00,
2013-06-29 00:26:00,68.1,63.1,29.60,NNW,347,0.0,1.0,84,0.00,,,0.00,Wunderground v.1.15,2013-06-29 05:26:00,
2013-06-29 00:33:00,67.9,62.9,29.60,NNW,347,0.0,0.0,84,0.00,,,0.00,Wunderground v.1.15,2013-06-29 05:33:00,
2013-06-29 00:38:00,67.7,63.0,29.60,NNW,347,0.0,0.0,85,0.00,,,0.00,Wunderground v.1.15,2013-06-29 05:38:00,
2013-06-29 00:44:00,67.5,62.8,29.60,NNW,347,0.0,0.0,85,0.00,,,0.00,Wunderground v.1.15,2013-06-29 05:44:00,
2013-06-29 00:50:00,67.3,62.6,29.60,NNW,347,0.0,0.0,85,0.00,,,0.00,Wunderground v.1.15,2013-06-29 05:50:00,
2013-06-29 00:56:00,67.1,62.8,29.60,NNW,347,0.0,0.0,86,0.00,,,0.00,Wunderground v.1.15,2013-06-29 05:56:00,
2013-06-29 01:03:00,67.0,62.7,29.60,NNW,347,0.0,0.0,86,0.00,,,0.00,Wunderground v.1.15,2013-06-29 06:03:00,
2013-06-29 01:08:00,66.8,62.8,29.60,NNW,347,0.0,0.0,87,0.00,,,0.00,Wunderground v.1.15,2013-06-29 06:08:00,
2013-06-29 01:14:00,66.7,62.7,29.59,NNW,347,0.0,0.0,87,0.00,,,0.00,Wunderground v.1.15,2013-06-29 06:14:00,
2013-06-29 01:20:00,66.5,62.5,29.60,NNW,347,0.0,0.0,87,0.00,,,0.00,Wunderground v.1.15,2013-06-29 06:20:00,
2013-06-29 01:26:00,66.3,62.3,29.59,NNW,347,0.0,0.0,87,0.00,,,0.00,Wunderground v.1.15,2013-06-29 06:26:00,
2013-06-29 01:33:00,66.1,62.4,29.59,NNW,347,0.0,0.0,88,0.00,,,0.00,Wunderground v.1.15,2013-06-29 06:33:00,
2013-06-29 01:38:00,66.0,62.3,29.59,NNW,346,0.0,1.0,88,0.00,,,0.00,Wunderground v.1.15,2013-06-29 06:38:00,
2013-06-29 01:44:00,65.8,62.1,29.59,NNW,347,0.0,1.0,88,0.00,,,0.00,Wunderground v.1.15,2013-06-29 06:44:00,
2013-06-29 01:50:00,65.7,62.0,29.59,NNW,347,0.0,0.0,88,0.00,,,0.00,Wunderground v.1.15,2013-06-29 06:50:00,
2013-06-29 01:56:00,65.6,62.3,29.59,NNW,347,0.0,0.0,89,0.00,,,0.00,Wunderground v.1.15,2013-06-29 06:56:00,
2013-06-29 02:03:00,65.6,62.3,29.59,NNW,347,0.0,0.0,89,0.00,,,0.00,Wunderground v.1.15,2013-06-29 07:03:00,
2013-06-29 02:08:00,65.6,62.3,29.60,NNW,347,0.0,0.0,89,0.00,,,0.00,Wunderground v.1.15,2013-06-29 07:08:00,
2013-06-29 02:14:00,65.5,62.2,29.59,NNW,347,0.0,0.0,89,0.00,,,0.00,Wunderground v.1.15,2013-06-29 07:14:00,
2013-06-29 02:20:00,65.5,62.2,29.59,NNW,347,0.0,0.0,89,0.00,,,0.00,Wunderground v.1.15,2013-06-29 07:20:00,
2013-06-29 02:27:00,65.4,62.4,29.59,NNW,347,0.0,0.0,90,0.00,,,0.00,Wunderground v.1.15,2013-06-29 07:27:00,
2013-06-29 02:33:00,65.3,62.3,29.59,NNW,347,0.0,0.0,90,0.00,,,0.00,Wunderground v.1.15,2013-06-29 07:33:00,
2013-06-29 02:39:00,65.2,62.2,29.59,NNW,347,0.0,0.0,90,0.00,,,0.00,Wunderground v.1.15,2013-06-29 07:39:00,
2013-06-29 02:45:00,65.1,62.1,29.59,NNW,347,0.0,0.0,90,0.00,,,0.00,Wunderground v.1.15,2013-06-29 07:45:00,
2013-06-29 02:51:00,65.0,62.0,29.59,NNW,347,0.0,0.0,90,0.00,,,0.00,Wunderground v.1.15,2013-06-29 07:51:00,
2013-06-29 02:57:00,64.9,61.9,29.59,NNW,347,0.0,0.0,90,0.00,,,0.00,Wunderground v.1.15,2013-06-29 07:57:00,
2013-06-29 03:03:00,64.8,62.1,29.58,NNW,347,0.0,0.0,91,0.00,,,0.00,Wunderground v.1.15,2013-06-29 08:03:00,
2013-06-29 03:09:00,64.7,62.0,29.58,NNW,347,0.0,0.0,91,0.00,,,0.00,Wunderground v.1.15,2013-06-29 08:09:00,
2013-06-29 03:15:00,64.7,62.0,29.58,NNW,347,0.0,1.0,91,0.00,,,0.00,Wunderground v.1.15,2013-06-29 08:15:00,
2013-06-29 03:21:00,64.6,61.9,29.59,NNW,347,0.0,0.0,91,0.00,,,0.00,Wunderground v.1.15,2013-06-29 08:21:00,
2013-06-29 03:27:00,64.5,61.8,29.59,NNW,347,0.0,0.0,91,0.00,,,0.00,Wunderground v.1.15,2013-06-29 08:27:00,
2013-06-29 03:33:00,64.4,61.7,29.59,NNW,347,0.0,0.0,91,0.00,,,0.00,Wunderground v.1.15,2013-06-29 08:33:00,
2013-06-29 03:39:00,64.4,62.0,29.59,NNW,347,0.0,0.0,92,0.00,,,0.00,Wunderground v.1.15,2013-06-29 08:39:00,
2013-06-29 03:45:00,64.3,61.9,29.59,NNW,347,0.0,0.0,92,0.00,,,0.00,Wunderground v.1.15,2013-06-29 08:45:00,
2013-06-29 03:51:00,64.2,61.8,29.59,NNW,347,0.0,0.0,92,0.00,,,0.00,Wunderground v.1.15,2013-06-29 08:51:00,
2013-06-29 03:57:00,64.1,61.7,29.59,NNW,347,0.0,0.0,92,0.00,,,0.00,Wunderground v.1.15,2013-06-29 08:57:00,
2013-06-29 04:03:00,64.0,61.6,29.59,NNW,347,0.0,0.0,92,0.00,,,0.00,Wunderground v.1.15,2013-06-29 09:03:00,
2013-06-29 04:09:00,64.0,61.6,29.59,NNW,347,0.0,0.0,92,0.00,,,0.00,Wunderground v.1.15,2013-06-29 09:09:00,
2013-06-29 04:15:00,64.0,61.6,29.59,NNW,347,0.0,0.0,92,0.00,,,0.00,Wunderground v.1.15,2013-06-29 09:15:00,
2013-06-29 04:20:00,63.9,61.5,29.59,NNW,347,0.0,0.0,92,0.00,,,0.00,Wunderground v.1.15,2013-06-29 09:20:00,
2013-06-29 04:27:00,63.8,61.7,29.59,NNW,347,0.0,0.0,93,0.00,,,0.00,Wunderground v.1.15,2013-06-29 09:27:00,
2013-06-29 04:33:00,63.8,61.7,29.60,NNW,347,0.0,0.0,93,0.00,,,0.00,Wunderground v.1.15,2013-06-29 09:33:00,
2013-06-29 04:38:00,63.9,61.8,29.60,NNW,347,0.0,0.0,93,0.00,,,0.00,Wunderground v.1.15,2013-06-29 09:38:00,
2013-06-29 04:45:00,64.0,61.9,29.60,NNW,347,0.0,0.0,93,0.00,,,0.00,Wunderground v.1.15,2013-06-29 09:45:00,
2013-06-29 04:50:00,64.1,62.0,29.60,NNW,347,0.0,0.0,93,0.00,,,0.00,Wunderground v.1.15,2013-06-29 09:50:00,
2013-06-29 04:57:00,64.2,62.1,29.60,NNW,347,0.0,0.0,93,0.00,,,0.00,Wunderground v.1.15,2013-06-29 09:57:00,
2013-06-29 05:03:00,64.4,62.3,29.60,NNW,347,0.0,1.0,93,0.00,,,0.00,Wunderground v.1.15,2013-06-29 10:03:00,
2013-06-29 05:08:00,64.4,62.3,29.60,NNW,347,0.0,0.0,93,0.00,,,0.00,Wunderground v.1.15,2013-06-29 10:08:00,
2013-06-29 05:14:00,64.5,62.4,29.60,NNW,347,0.0,1.0,93,0.00,,,0.00,Wunderground v.1.15,2013-06-29 10:14:00,
2013-06-29 05:20:00,64.5,62.4,29.60,NNW,347,0.0,1.0,93,0.00,,,0.00,Wunderground v.1.15,2013-06-29 10:20:00,
2013-06-29 05:26:00,64.5,62.4,29.60,NNW,347,0.0,1.0,93,0.00,,,0.00,Wunderground v.1.15,2013-06-29 10:26:00,
2013-06-29 05:33:00,64.5,62.4,29.60,NNW,347,0.0,0.0,93,0.00,,,0.00,Wunderground v.1.15,2013-06-29 10:33:00,
2013-06-29 05:38:00,64.6,62.5,29.60,NNW,347,0.0,0.0,93,0.00,,,0.00,Wunderground v.1.15,2013-06-29 10:38:00,
2013-06-29 05:44:00,64.6,62.5,29.60,NNW,347,0.0,1.0,93,0.00,,,0.00,Wunderground v.1.15,2013-06-29 10:44:00,
2013-06-29 05:50:00,64.7,62.6,29.60,NNW,347,0.0,0.0,93,0.00,,,0.00,Wunderground v.1.15,2013-06-29 10:50:00,
2013-06-29 05:56:00,64.8,62.7,29.60,NNW,347,0.0,0.0,93,0.00,,,0.00,Wunderground v.1.15,2013-06-29 10:56:00,
2013-06-29 06:03:00,64.8,62.7,29.60,NNW,347,0.0,0.0,93,0.00,,,0.00,Wunderground v.1.15,2013-06-29 11:03:00,
2013-06-29 06:08:00,64.9,62.8,29.61,NNW,347,0.0,0.0,93,0.00,,,0.00,Wunderground v.1.15,2013-06-29 11:08:00,
2013-06-29 06:14:00,65.0,62.9,29.61,NNW,347,0.0,0.0,93,0.00,,,0.00,Wunderground v.1.15,2013-06-29 11:14:00,
2013-06-29 06:20:00,65.2,63.1,29.61,NNW,347,0.0,0.0,93,0.00,,,0.00,Wunderground v.1.15,2013-06-29 11:20:00,
2013-06-29 06:26:00,65.3,63.2,29.61,NNW,347,0.0,0.0,93,0.00,,,0.00,Wunderground v.1.15,2013-06-29 11:26:00,
2013-06-29 06:32:00,65.4,63.3,29.61,NNW,347,0.0,0.0,93,0.00,,,0.00,Wunderground v.1.15,2013-06-29 11:32:00,
2013-06-29 06:38:00,65.4,63.3,29.61,NNW,347,0.0,0.0,93,0.00,,,0.00,Wunderground v.1.15,2013-06-29 11:38:00,
2013-06-29 06:44:00,65.5,63.1,29.61,NNW,347,0.0,1.0,92,0.00,,,0.00,Wunderground v.1.15,2013-06-29 11:44:00,
2013-06-29 06:50:00,65.5,63.1,29.61,NNW,347,0.0,1.0,92,0.00,,,0.00,Wunderground v.1.15,2013-06-29 11:50:00,
2013-06-29 06:56:00,65.5,63.1,29.61,NNW,347,0.0,1.0,92,0.00,,,0.00,Wunderground v.1.15,2013-06-29 11:56:00,
2013-06-29 07:02:00,65.6,63.2,29.61,NNW,347,0.0,0.0,92,0.00,,,0.00,Wunderground v.1.15,2013-06-29 12:02:00,
2013-06-29 07:08:00,65.7,63.3,29.61,NNW,347,0.0,0.0,92,0.00,,,0.00,Wunderground v.1.15,2013-06-29 12:08:00,
2013-06-29 07:14:00,65.7,63.3,29.61,NNW,347,0.0,0.0,92,0.00,,,0.00,Wunderground v.1.15,2013-06-29 12:14:00,
2013-06-29 07:20:00,65.8,63.7,29.61,NNW,347,0.0,0.0,93,0.00,,,0.00,Wunderground v.1.15,2013-06-29 12:20:00,
2013-06-29 07:27:00,65.9,63.5,29.61,NNW,347,0.0,0.0,92,0.00,,,0.00,Wunderground v.1.15,2013-06-29 12:27:00,
2013-06-29 07:33:00,65.9,63.5,29.61,NNW,347,0.0,0.0,92,0.00,,,0.00,Wunderground v.1.15,2013-06-29 12:33:00,
2013-06-29 07:39:00,66.0,63.9,29.61,NNW,347,0.0,0.0,93,0.00,,,0.00,Wunderground v.1.15,2013-06-29 12:39:00,
2013-06-29 07:45:00,66.1,64.0,29.61,NNW,347,0.0,0.0,93,0.00,,,0.00,Wunderground v.1.15,2013-06-29 12:45:00,
2013-06-29 07:51:00,66.2,63.8,29.61,NNW,347,0.0,2.0,92,0.00,,,0.00,Wunderground v.1.15,2013-06-29 12:51:00,
2013-06-29 07:57:00,66.1,63.7,29.61,NNW,347,1.0,2.0,92,0.00,,,0.00,Wunderground v.1.15,2013-06-29 12:57:00,
2013-06-29 08:03:00,66.3,63.9,29.61,NNW,347,2.0,2.0,92,0.00,,,0.00,Wunderground v.1.15,2013-06-29 13:03:00,
2013-06-29 08:09:00,66.5,64.1,29.62,NNW,347,1.0,2.0,92,0.00,,,0.00,Wunderground v.1.15,2013-06-29 13:09:00,
2013-06-29 08:15:00,66.8,64.4,29.62,NNW,347,1.0,2.0,92,0.00,,,0.00,Wunderground v.1.15,2013-06-29 13:15:00,
2013-06-29 08:21:00,67.1,64.7,29.62,NNW,347,0.0,1.0,92,0.00,,,0.00,Wunderground v.1.15,2013-06-29 13:21:00,
2013-06-29 08:27:00,67.4,64.7,29.62,NNW,347,1.0,2.0,91,0.00,,,0.00,Wunderground v.1.15,2013-06-29 13:27:00,
2013-06-29 08:33:00,67.5,64.5,29.62,NNW,347,1.0,1.0,90,0.00,,,0.00,Wunderground v.1.15,2013-06-29 13:33:00,
2013-06-29 08:39:00,67.6,64.9,29.61,NNW,347,1.0,4.0,91,0.00,,,0.00,Wunderground v.1.15,2013-06-29 13:39:00,
2013-06-29 08:45:00,67.7,65.0,29.61,NNW,346,1.0,4.0,91,0.00,,,0.00,Wunderground v.1.15,2013-06-29 13:45:00,
2013-06-29 08:51:00,68.0,65.0,29.61,NNW,347,1.0,3.0,90,0.00,,,0.00,Wunderground v.1.15,2013-06-29 13:51:00,
2013-06-29 08:57:00,68.0,64.6,29.61,NNW,347,1.0,3.0,89,0.00,,,0.00,Wunderground v.1.15,2013-06-29 13:57:00,
2013-06-29 09:03:00,67.9,64.2,29.61,NNW,347,1.0,5.0,88,0.00,,,0.00,Wunderground v.1.15,2013-06-29 14:03:00,
2013-06-29 09:09:00,68.0,64.3,29.61,NNW,347,2.0,2.0,88,0.00,,,0.00,Wunderground v.1.15,2013-06-29 14:09:00,
2013-06-29 09:15:00,68.1,63.8,29.61,NNE,18,2.0,2.0,86,0.00,,,0.00,Wunderground v.1.15,2013-06-29 14:15:00,
2013-06-29 09:21:00,68.4,64.0,29.61,NNE,18,2.0,4.0,86,0.00,,,0.00,Wunderground v.1.15,2013-06-29 14:21:00,
2013-06-29 09:26:00,68.8,64.4,29.61,NNE,18,2.0,4.0,86,0.00,,,0.00,Wunderground v.1.15,2013-06-29 14:26:00,
2013-06-29 09:33:00,69.4,65.0,29.61,NNE,18,1.0,2.0,86,0.00,,,0.00,Wunderground v.1.15,2013-06-29 14:33:00,
2013-06-29 09:39:00,69.5,64.5,29.61,NNE,18,2.0,5.0,84,0.00,,,0.00,Wunderground v.1.15,2013-06-29 14:39:00,
2013-06-29 09:44:00,69.4,64.4,29.61,NNE,18,3.0,5.0,84,0.00,,,0.00,Wunderground v.1.15,2013-06-29 14:44:00,
2013-06-29 09:51:00,69.4,64.4,29.61,NE,36,3.0,3.0,84,0.00,,,0.00,Wunderground v.1.15,2013-06-29 14:51:00,
2013-06-29 09:56:00,69.5,64.1,29.61,NE,38,4.0,6.0,83,0.00,,,0.00,Wunderground v.1.15,2013-06-29 14:56:00,
2013-06-29 10:03:00,69.2,63.8,29.61,NNE,23,5.0,5.0,83,0.00,,,0.00,Wunderground v.1.15,2013-06-29 15:03:00,
2013-06-29 10:09:00,69.1,64.4,29.61,NNE,23,4.0,4.0,85,0.00,,,0.00,Wunderground v.1.15,2013-06-29 15:09:00,
2013-06-29 10:14:00,68.5,64.1,29.61,North,11,4.0,7.0,86,0.00,,,0.00,Wunderground v.1.15,2013-06-29 15:14:00,
2013-06-29 10:20:00,67.3,63.6,29.61,NNE,16,5.0,6.0,88,0.00,,,0.00,Wunderground v.1.15,2013-06-29 15:20:00,
2013-06-29 10:26:00,66.6,63.6,29.61,North,10,5.0,6.0,90,0.00,,,0.01,Wunderground v.1.15,2013-06-29 15:26:00,
2013-06-29 10:33:00,65.8,63.1,29.61,NNE,20,4.0,5.0,91,0.00,,,0.01,Wunderground v.1.15,2013-06-29 15:33:00,
2013-06-29 10:38:00,65.5,63.1,29.62,NNE,20,3.0,3.0,92,0.53,,,0.04,Wunderground v.1.15,2013-06-29 15:38:00,
2013-06-29 10:44:00,65.3,63.2,29.63,NNE,20,2.0,3.0,93,0.29,,,0.07,Wunderground v.1.15,2013-06-29 15:44:00,
2013-06-29 10:50:00,65.1,63.0,29.62,NNE,20,1.0,2.0,93,0.12,,,0.08,Wunderground v.1.15,2013-06-29 15:50:00,
2013-06-29 10:56:00,65.0,63.2,29.62,NNE,20,1.0,2.0,94,0.20,,,0.11,Wunderground v.1.15,2013-06-29 15:56:00,
2013-06-29 11:03:00,64.9,63.1,29.62,NNE,20,0.0,2.0,94,0.33,,,0.14,Wunderground v.1.15,2013-06-29 16:03:00,
2013-06-29 11:08:00,64.8,63.0,29.62,NNE,20,0.0,0.0,94,0.21,,,0.16,Wunderground v.1.15,2013-06-29 16:08:00,
2013-06-29 11:14:00,64.8,63.3,29.62,NNE,20,0.0,0.0,95,0.24,,,0.18,Wunderground v.1.15,2013-06-29 16:14:00,
2013-06-29 11:20:00,64.7,63.2,29.62,NNE,20,0.0,0.0,95,0.16,,,0.19,Wunderground v.1.15,2013-06-29 16:20:00,
2013-06-29 11:26:00,64.8,63.3,29.62,NNE,20,0.0,0.0,95,0.16,,,0.21,Wunderground v.1.15,2013-06-29 16:26:00,
2013-06-29 11:33:00,64.9,63.4,29.62,NNE,20,0.0,0.0,95,0.28,,,0.23,Wunderground v.1.15,2013-06-29 16:33:00,
2013-06-29 11:38:00,65.0,63.5,29.62,NNE,20,0.0,0.0,95,0.22,,,0.25,Wunderground v.1.15,2013-06-29 16:38:00,
2013-06-29 11:44:00,65.0,63.5,29.62,NNE,20,0.0,0.0,95,0.13,,,0.27,Wunderground v.1.15,2013-06-29 16:44:00,
2013-06-29 11:50:00,65.1,63.6,29.62,NNE,20,0.0,0.0,95,0.17,,,0.28,Wunderground v.1.15,2013-06-29 16:50:00,
2013-06-29 11:56:00,65.3,64.1,29.62,NNE,20,0.0,0.0,96,0.07,,,0.29,Wunderground v.1.15,2013-06-29 16:56:00,
2013-06-29 12:02:00,65.5,64.3,29.62,NNE,20,0.0,0.0,96,0.07,,,0.29,Wunderground v.1.15,2013-06-29 17:02:00,
2013-06-29 12:08:00,65.7,64.5,29.62,NNE,20,0.0,0.0,96,0.05,,,0.29,Wunderground v.1.15,2013-06-29 17:08:00,
2013-06-29 12:14:00,66.0,64.8,29.63,NNE,20,0.0,1.0,96,0.00,,,0.29,Wunderground v.1.15,2013-06-29 17:14:00,
2013-06-29 12:20:00,66.3,65.1,29.63,NNE,20,0.0,0.0,96,0.00,,,0.29,Wunderground v.1.15,2013-06-29 17:20:00,
2013-06-29 12:25:00,66.6,65.4,29.63,NNE,20,0.0,0.0,96,0.00,,,0.29,Wunderground v.1.15,2013-06-29 17:25:00,
2013-06-29 12:31:00,66.8,65.6,29.62,NNE,20,0.0,0.0,96,0.00,,,0.29,Wunderground v.1.15,2013-06-29 17:31:00,
2013-06-29 12:37:00,67.4,66.2,29.62,NNE,20,0.0,0.0,96,0.00,,,0.29,Wunderground v.1.15,2013-06-29 17:37:00,
2013-06-29 12:43:00,67.8,66.6,29.62,NNE,20,0.0,0.0,96,0.00,,,0.29,Wunderground v.1.15,2013-06-29 17:43:00,
2013-06-29 12:49:00,67.7,66.2,29.62,NNE,20,1.0,1.0,95,0.00,,,0.29,Wunderground v.1.15,2013-06-29 17:49:00,
2013-06-29 12:55:00,67.9,66.4,29.63,NNE,20,1.0,1.0,95,0.00,,,0.29,Wunderground v.1.15,2013-06-29 17:55:00,
2013-06-29 13:01:00,68.0,66.2,29.63,NNE,20,1.0,1.0,94,0.00,,,0.29,Wunderground v.1.15,2013-06-29 18:01:00,
2013-06-29 13:07:00,67.5,65.1,29.63,NNW,331,1.0,6.0,92,0.00,,,0.29,Wunderground v.1.15,2013-06-29 18:07:00,
2013-06-29 13:13:00,65.6,62.9,29.63,North,350,4.0,5.0,91,1.77,,,0.43,Wunderground v.1.15,2013-06-29 18:13:00,
2013-06-29 13:19:00,64.1,61.7,29.63,North,5,4.0,4.0,92,2.35,,,0.62,Wunderground v.1.15,2013-06-29 18:19:00,
2013-06-29 13:25:00,63.5,61.7,29.63,North,5,3.0,4.0,94,0.54,,,0.74,Wunderground v.1.15,2013-06-29 18:25:00,
2013-06-29 13:31:00,63.9,62.4,29.63,North,5,3.0,4.0,95,0.16,,,0.76,Wunderground v.1.15,2013-06-29 18:31:00,
2013-06-29 13:37:00,64.2,62.7,29.63,North,5,3.0,4.0,95,0.31,,,0.78,Wunderground v.1.15,2013-06-29 18:37:00,
2013-06-29 13:43:00,64.3,63.1,29.64,North,5,2.0,4.0,96,0.08,,,0.78,Wunderground v.1.15,2013-06-29 18:43:00,
2013-06-29 13:49:00,64.4,63.2,29.63,North,5,2.0,4.0,96,0.05,,,0.79,Wunderground v.1.15,2013-06-29 18:49:00,
2013-06-29 13:55:00,64.7,63.5,29.64,North,9,2.0,4.0,96,0.05,,,0.79,Wunderground v.1.15,2013-06-29 18:55:00,
2013-06-29 14:01:00,64.7,63.5,29.64,North,11,3.0,6.0,96,0.08,,,0.80,Wunderground v.1.15,2013-06-29 19:01:00,
2013-06-29 14:07:00,64.7,63.5,29.64,NNE,16,4.0,6.0,96,0.10,,,0.81,Wunderground v.1.15,2013-06-29 19:07:00,
2013-06-29 14:13:00,64.8,63.6,29.64,North,10,5.0,5.0,96,0.11,,,0.83,Wunderground v.1.15,2013-06-29 19:13:00,
2013-06-29 14:19:00,64.2,62.7,29.64,NNE,32,6.0,7.0,95,0.10,,,0.83,Wunderground v.1.15,2013-06-29 19:19:00,
2013-06-29 14:25:00,63.8,61.7,29.65,NNE,22,7.0,7.0,93,0.08,,,0.84,Wunderground v.1.15,2013-06-29 19:25:00,
2013-06-29 14:30:00,63.6,61.5,29.65,NNE,18,6.0,7.0,93,0.06,,,0.84,Wunderground v.1.15,2013-06-29 19:30:00,
2013-06-29 14:37:00,63.4,61.3,29.65,NNE,32,6.0,7.0,93,0.04,,,0.85,Wunderground v.1.15,2013-06-29 19:37:00,
2013-06-29 14:43:00,63.3,61.2,29.65,NNE,22,5.0,5.0,93,0.04,,,0.85,Wunderground v.1.15,2013-06-29 19:43:00,
2013-06-29 14:48:00,63.3,61.5,29.66,NNE,31,4.0,5.0,94,0.04,,,0.85,Wunderground v.1.15,2013-06-29 19:48:00,
2013-06-29 14:55:00,63.2,61.4,29.66,NNE,21,5.0,5.0,94,0.04,,,0.86,Wunderground v.1.15,2013-06-29 19:55:00,
2013-06-29 15:00:00,62.9,60.8,29.66,NNE,26,5.0,6.0,93,0.13,,,0.88,Wunderground v.1.15,2013-06-29 20:00:00,
2013-06-29 15:07:00,62.6,60.5,29.66,NNE,16,6.0,6.0,93,0.11,,,0.89,Wunderground v.1.15,2013-06-29 20:07:00,
2013-06-29 15:13:00,62.5,60.4,29.66,NNE,26,5.0,6.0,93,0.08,,,0.89,Wunderground v.1.15,2013-06-29 20:13:00,
2013-06-29 15:18:00,62.3,60.6,29.67,NE,53,5.0,6.0,94,0.06,,,0.90,Wunderground v.1.15,2013-06-29 20:18:00,
2013-06-29 15:25:00,62.2,60.5,29.67,NNE,28,5.0,6.0,94,0.06,,,0.91,Wunderground v.1.15,2013-06-29 20:25:00,
2013-06-29 15:30:00,62.2,60.5,29.67,ENE,58,5.0,5.0,94,0.06,,,0.91,Wunderground v.1.15,2013-06-29 20:30:00,
2013-06-29 15:36:00,62.1,60.4,29.67,NE,36,5.0,7.0,94,0.15,,,0.93,Wunderground v.1.15,2013-06-29 20:36:00,
2013-06-29 15:43:00,62.3,60.8,29.67,NE,55,5.0,6.0,95,0.14,,,0.94,Wunderground v.1.15,2013-06-29 20:43:00,
2013-06-29 15:48:00,62.6,61.1,29.67,NNE,20,4.0,4.0,95,0.13,,,0.95,Wunderground v.1.15,2013-06-29 20:48:00,
2013-06-29 15:54:00,63.1,61.6,29.67,NE,53,6.0,8.0,95,0.11,,,0.96,Wunderground v.1.15,2013-06-29 20:54:00,
2013-06-29 16:00:00,63.5,62.0,29.67,NNE,20,6.0,6.0,95,0.05,,,0.96,Wunderground v.1.15,2013-06-29 21:00:00,
2013-06-29 16:06:00,63.8,62.6,29.67,NNE,26,5.0,6.0,96,0.05,,,0.97,Wunderground v.1.15,2013-06-29 21:06:00,
2013-06-29 16:13:00,64.1,62.6,29.67,NNE,25,6.0,6.0,95,0.07,,,0.98,Wunderground v.1.15,2013-06-29 21:13:00,
2013-06-29 16:18:00,64.2,63.0,29.67,NNE,17,6.0,7.0,96,0.07,,,0.98,Wunderground v.1.15,2013-06-29 21:18:00,
2013-06-29 16:24:00,64.3,63.1,29.66,NNE,14,6.0,7.0,96,0.05,,,0.99,Wunderground v.1.15,2013-06-29 21:24:00,
2013-06-29 16:30:00,64.4,63.2,29.66,North,5,6.0,6.0,96,0.05,,,0.99,Wunderground v.1.15,2013-06-29 21:30:00,
2013-06-29 16:36:00,64.4,62.9,29.66,North,5,6.0,8.0,95,0.06,,,1.00,Wunderground v.1.15,2013-06-29 21:36:00,
2013-06-29 16:43:00,64.5,63.0,29.67,NNE,31,5.0,6.0,95,0.06,,,1.00,Wunderground v.1.15,2013-06-29 21:43:00,
2013-06-29 16:48:00,64.6,63.1,29.67,NNE,20,4.0,5.0,95,0.05,,,1.01,Wunderground v.1.15,2013-06-29 21:48:00,
2013-06-29 16:54:00,64.5,63.0,29.67,NNE,18,5.0,7.0,95,0.05,,,1.01,Wunderground v.1.15,2013-06-29 21:54:00,
2013-06-29 17:00:00,64.6,63.1,29.67,NNE,19,5.0,5.0,95,0.04,,,1.02,Wunderground v.1.15,2013-06-29 22:00:00,
2013-06-29 17:06:00,64.7,63.2,29.67,NNE,15,4.0,5.0,95,0.04,,,1.02,Wunderground v.1.15,2013-06-29 22:06:00,
2013-06-29 17:12:00,64.9,63.4,29.67,NNE,16,4.0,4.0,95,0.04,,,1.02,Wunderground v.1.15,2013-06-29 22:12:00,
2013-06-29 17:18:00,65.0,63.5,29.67,NNE,16,3.0,4.0,95,0.00,,,1.02,Wunderground v.1.15,2013-06-29 22:18:00,
2013-06-29 17:25:00,65.0,63.5,29.67,NNE,16,3.0,4.0,95,0.00,,,1.02,Wunderground v.1.15,2013-06-29 22:25:00,
2013-06-29 17:31:00,65.1,63.6,29.67,NNE,16,3.0,3.0,95,0.00,,,1.02,Wunderground v.1.15,2013-06-29 22:31:00,
2013-06-29 17:37:00,65.3,63.8,29.67,NNE,16,2.0,3.0,95,0.00,,,1.02,Wunderground v.1.15,2013-06-29 22:37:00,
2013-06-29 17:43:00,65.4,63.9,29.67,NNE,16,2.0,2.0,95,0.00,,,1.02,Wunderground v.1.15,2013-06-29 22:43:00,
2013-06-29 17:49:00,65.5,64.0,29.67,NNE,16,2.0,2.0,95,0.00,,,1.02,Wunderground v.1.15,2013-06-29 22:49:00,
2013-06-29 17:55:00,65.6,64.1,29.68,NNE,16,1.0,2.0,95,0.00,,,1.02,Wunderground v.1.15,2013-06-29 22:55:00,
2013-06-29 18:01:00,65.8,64.3,29.68,NNE,16,1.0,1.0,95,0.00,,,1.02,Wunderground v.1.15,2013-06-29 23:01:00,
2013-06-29 18:07:00,65.8,64.3,29.67,NNE,16,1.0,2.0,95,0.00,,,1.02,Wunderground v.1.15,2013-06-29 23:07:00,
2013-06-29 18:13:00,65.9,64.4,29.67,NNE,16,1.0,2.0,95,0.00,,,1.02,Wunderground v.1.15,2013-06-29 23:13:00,
2013-06-29 18:19:00,66.1,64.6,29.67,NNE,16,1.0,1.0,95,0.00,,,1.02,Wunderground v.1.15,2013-06-29 23:19:00,
2013-06-29 18:25:00,66.4,64.9,29.68,NNE,16,2.0,4.0,95,0.00,,,1.02,Wunderground v.1.15,2013-06-29 23:25:00,
2013-06-29 18:31:00,66.5,64.7,29.68,NNE,15,3.0,3.0,94,0.00,,,1.02,Wunderground v.1.15,2013-06-29 23:31:00,
2013-06-29 18:37:00,66.7,64.9,29.68,NNE,15,2.0,4.0,94,0.00,,,1.02,Wunderground v.1.15,2013-06-29 23:37:00,
2013-06-29 18:43:00,66.8,65.0,29.68,NNE,15,3.0,6.0,94,0.00,,,1.02,Wunderground v.1.15,2013-06-29 23:43:00,
2013-06-29 18:49:00,67.0,65.2,29.68,NNE,15,2.0,2.0,94,0.00,,,1.02,Wunderground v.1.15,2013-06-29 23:49:00,
2013-06-29 18:55:00,67.1,65.0,29.69,NNE,15,2.0,4.0,93,0.00,,,1.02,Wunderground v.1.15,2013-06-29 23:55:00,
2013-06-29 19:01:00,67.3,65.2,29.69,NNE,15,2.0,3.0,93,0.00,,,1.02,Wunderground v.1.15,2013-06-30 00:01:00,
2013-06-29 19:07:00,67.5,65.4,29.70,NNE,15,2.0,4.0,93,0.00,,,1.02,Wunderground v.1.15,2013-06-30 00:07:00,
2013-06-29 19:13:00,67.6,65.2,29.70,NNE,15,3.0,5.0,92,0.00,,,1.02,Wunderground v.1.15,2013-06-30 00:13:00,
2013-06-29 19:19:00,67.6,65.2,29.70,NNE,15,3.0,3.0,92,0.00,,,1.02,Wunderground v.1.15,2013-06-30 00:19:00,
2013-06-29 19:24:00,67.6,65.2,29.71,NNE,15,3.0,4.0,92,0.00,,,1.02,Wunderground v.1.15,2013-06-30 00:24:00,
2013-06-29 19:31:00,67.7,65.0,29.71,NNE,21,3.0,5.0,91,0.00,,,1.02,Wunderground v.1.15,2013-06-30 00:31:00,
2013-06-29 19:36:00,67.6,64.6,29.71,NNE,27,4.0,5.0,90,0.00,,,1.02,Wunderground v.1.15,2013-06-30 00:36:00,
2013-06-29 19:43:00,67.7,62.7,29.72,NNE,30,6.0,9.0,84,0.00,,,1.02,Wunderground v.1.15,2013-06-30 00:43:00,
2013-06-29 19:49:00,67.6,61.9,29.72,NNE,26,7.0,7.0,82,0.00,,,1.02,Wunderground v.1.15,2013-06-30 00:49:00,
2013-06-29 19:54:00,67.4,61.4,29.72,NNE,26,7.0,8.0,81,0.00,,,1.02,Wunderground v.1.15,2013-06-30 00:54:00,
2013-06-29 20:01:00,67.2,61.2,29.72,NNE,22,7.0,7.0,81,0.00,,,1.02,Wunderground v.1.15,2013-06-30 01:01:00,
2013-06-29 20:06:00,66.9,60.9,29.72,NNE,20,7.0,7.0,81,0.00,,,1.02,Wunderground v.1.15,2013-06-30 01:06:00,
2013-06-29 20:13:00,66.7,60.3,29.72,NNE,29,6.0,7.0,80,0.00,,,1.02,Wunderground v.1.15,2013-06-30 01:13:00,
2013-06-29 20:19:00,66.5,60.1,29.72,NNE,22,6.0,7.0,80,0.00,,,1.02,Wunderground v.1.15,2013-06-30 01:19:00,
2013-06-29 20:24:00,66.4,60.0,29.72,NNE,28,6.0,8.0,80,0.00,,,1.02,Wunderground v.1.15,2013-06-30 01:24:00,
2013-06-29 20:30:00,66.3,60.3,29.72,NNE,22,6.0,6.0,81,0.00,,,1.02,Wunderground v.1.15,2013-06-30 01:30:00,
2013-06-29 20:36:00,66.2,60.2,29.72,NNE,27,5.0,6.0,81,0.00,,,1.02,Wunderground v.1.15,2013-06-30 01:36:00,
2013-06-29 20:43:00,66.1,60.1,29.72,North,5,5.0,7.0,81,0.00,,,1.02,Wunderground v.1.15,2013-06-30 01:43:00,
2013-06-29 20:48:00,66.0,60.0,29.72,NNE,25,5.0,5.0,81,0.00,,,1.02,Wunderground v.1.15,2013-06-30 01:48:00,
2013-06-29 20:54:00,65.9,59.9,29.73,NNE,24,4.0,5.0,81,0.00,,,1.02,Wunderground v.1.15,2013-06-30 01:54:00,
2013-06-29 21:00:00,65.9,60.2,29.73,NNE,22,4.0,6.0,82,0.00,,,1.02,Wunderground v.1.15,2013-06-30 02:00:00,
2013-06-29 21:06:00,65.8,60.2,29.73,NNE,22,4.0,6.0,82,0.00,,,1.02,Wunderground v.1.15,2013-06-30 02:06:00,
2013-06-29 21:13:00,65.6,60.3,29.74,NNE,22,2.0,3.0,83,0.00,,,1.02,Wunderground v.1.15,2013-06-30 02:13:00,
2013-06-29 21:18:00,65.4,60.4,29.74,NNE,22,1.0,1.0,84,0.00,,,1.02,Wunderground v.1.15,2013-06-30 02:18:00,
2013-06-29 21:24:00,65.2,60.6,29.74,NNE,22,0.0,1.0,85,0.00,,,1.02,Wunderground v.1.15,2013-06-30 02:24:00,
2013-06-29 21:30:00,65.1,60.5,29.74,NNE,22,0.0,0.0,85,0.00,,,1.02,Wunderground v.1.15,2013-06-30 02:30:00,
2013-06-29 21:36:00,65.0,60.4,29.75,NNE,22,0.0,0.0,85,0.00,,,1.02,Wunderground v.1.15,2013-06-30 02:36:00,
2013-06-29 21:43:00,64.9,60.3,29.75,NNE,22,0.0,0.0,85,0.00,,,1.02,Wunderground v.1.15,2013-06-30 02:43:00,
2013-06-29 21:48:00,64.7,60.4,29.75,NNE,22,0.0,0.0,86,0.00,,,1.02,Wunderground v.1.15,2013-06-30 02:48:00,
2013-06-29 21:54:00,64.4,60.1,29.75,NNE,22,0.0,0.0,86,0.00,,,1.02,Wunderground v.1.15,2013-06-30 02:54:00,
2013-06-29 22:00:00,64.2,60.2,29.75,NNE,22,0.0,0.0,87,0.00,,,1.02,Wunderground v.1.15,2013-06-30 03:00:00,
2013-06-29 22:06:00,64.1,60.2,29.75,NNE,22,0.0,0.0,87,0.00,,,1.02,Wunderground v.1.15,2013-06-30 03:06:00,
2013-06-29 22:13:00,63.9,60.0,29.75,NNE,22,0.0,0.0,87,0.00,,,1.02,Wunderground v.1.15,2013-06-30 03:13:00,
2013-06-29 22:18:00,63.8,59.5,29.75,North,360,1.0,5.0,86,0.00,,,1.02,Wunderground v.1.15,2013-06-30 03:18:00,
2013-06-29 22:24:00,64.2,59.3,29.75,NNE,25,4.0,6.0,84,0.00,,,1.02,Wunderground v.1.15,2013-06-30 03:24:00,
2013-06-29 22:29:00,64.4,58.8,29.75,NNE,21,6.0,6.0,82,0.00,,,1.02,Wunderground v.1.15,2013-06-30 03:29:00,
2013-06-29 22:35:00,64.4,58.8,29.76,NNE,23,7.0,7.0,82,0.00,,,1.02,Wunderground v.1.15,2013-06-30 03:35:00,
2013-06-29 22:41:00,64.1,58.5,29.75,NNE,22,6.0,6.0,82,0.00,,,1.02,Wunderground v.1.15,2013-06-30 03:41:00,
2013-06-29 22:47:00,64.0,58.4,29.75,NNE,24,6.0,7.0,82,0.00,,,1.02,Wunderground v.1.15,2013-06-30 03:47:00,
2013-06-29 22:53:00,64.1,58.5,29.76,NE,51,6.0,8.0,82,0.00,,,1.02,Wunderground v.1.15,2013-06-30 03:53:00,
2013-06-29 22:59:00,63.9,58.3,29.76,NNE,24,5.0,5.0,82,0.00,,,1.02,Wunderground v.1.15,2013-06-30 03:59:00,
2013-06-29 23:01:00,63.9,58.3,29.76,NNE,24,4.0,5.0,82,0.00,,,1.02,Wunderground v.1.15,2013-06-30 04:01:00,
2013-06-29 23:03:00,63.8,58.5,29.76,NNE,24,2.0,5.0,83,0.00,,,1.02,Wunderground v.1.15,2013-06-30 04:03:00,
2013-06-29 23:05:00,63.7,58.4,29.76,NNE,24,1.0,5.0,83,0.00,,,1.02,Wunderground v.1.15,2013-06-30 04:05:00,
2013-06-29 23:11:00,63.4,58.1,29.76,NNE,24,0.0,1.0,83,0.00,,,1.02,Wunderground v.1.15,2013-06-30 04:11:00,
2013-06-29 23:17:00,63.2,58.3,29.76,NNE,24,0.0,1.0,84,0.00,,,1.02,Wunderground v.1.15,2013-06-30 04:17:00,
2013-06-29 23:21:00,63.1,58.2,29.76,NNE,24,0.0,0.0,84,0.00,,,1.02,Wunderground v.1.15,2013-06-30 04:21:00,
2013-06-29 23:27:00,62.9,58.3,29.76,NNE,24,0.0,0.0,85,0.00,,,1.02,Wunderground v.1.15,2013-06-30 04:27:00,
2013-06-29 23:33:00,62.6,58.4,29.76,NNE,24,0.0,0.0,86,0.00,,,1.02,Wunderground v.1.15,2013-06-30 04:33:00,
2013-06-29 23:39:00,62.4,58.2,29.76,NNE,24,0.0,0.0,86,0.00,,,1.02,Wunderground v.1.15,2013-06-30 04:39:00,
2013-06-29 23:45:00,62.2,58.0,29.76,NNE,24,0.0,0.0,86,0.00,,,1.02,Wunderground v.1.15,2013-06-30 04:45:00,
2013-06-29 23:51:00,62.1,58.2,29.76,NNE,24,0.0,0.0,87,0.00,,,1.02,Wunderground v.1.15,2013-06-30 04:51:00,
2013-06-29 23:57:00,61.8,57.9,29.76,NNE,24,0.0,0.0,87,0.00,,,1.02,Wunderground v.1.15,2013-06-30 04:57:00,